Location: Newark
(34.6283°N, 36.0776°E)
Time: 21:08:37
(UTC+00:00)

Tiros 1 despin weight - Pass Details

Date: 20 September 2019
Orbit: 593 x 643 km, 48.2° (Epoch: 20 October)

Event Time Altitude Azimuth Distance (km) Brightness Sun altitude
Rises 17:30:14 0° 291° (WNW) 2,826 ? -23.9°
Reaches altitude 10° 17:33:07 10° 272° (W) 1,919 ? -24.4°
Maximum altitude 17:36:03 18° 229° (SW) 1,482 ? -25.0°
Enters shadow 17:37:34 15° 205° (SSW) 1,607 ? -25.3°
Drops below altitude 10° 17:39:00 10° 187° (S) 1,914 - -25.6°
Sets 17:41:53 0° 168° (SSE) 2,816 - -26.1°
